EW2998 Weather Reports


time (UTC)temp
C
wind
direction
speed
KPH
gust
KPH
rain 1hr
cm
rain 24hr
cm
rain mn
cm
humidity
%
barometer
mb
20260505171503 26 189 6.4 16.1 0.00 0.00 0.00 46 1008.7
20260505171003 26 191 6.4 16.1 0.00 0.00 0.00 46 1008.9
20260505170502 26 194 6.4 17.7 0.00 0.00 0.00 47 1009.0
20260505170003 26 188 8.0 17.7 0.00 0.00 0.00 47 1009.1
20260505165503 26 178 8.0 20.9 0.00 0.00 0.00 46 1009.1
20260505165003 26 174 8.0 20.9 0.00 0.00 0.00 46 1009.1
20260505164504 26 185 6.4 20.9 0.00 0.00 0.00 46 1009.1
20260505164003 26 189 6.4 16.1 0.00 0.00 0.00 48 1009.3
20260505163503 26 185 6.4 19.3 0.00 0.00 0.00 45 1009.3
20260505163003 26 191 4.8 19.3 0.00 0.00 0.00 43 1009.2
20260505162505 26 207 4.8 12.9 0.00 0.00 0.00 46 1009.3
20260505162003 26 211 6.4 19.3 0.00 0.00 0.00 43 1009.4
20260505161503 26 200 6.4 19.3 0.00 0.00 0.00 42 1009.2
20260505161003 26 192 6.4 16.1 0.00 0.00 0.00 42 1009.1
20260505160503 26 209 6.4 14.5 0.00 0.00 0.00 41 1009.1
20260505152503 25 220 4.8 16.1 0.00 0.00 0.00 45 1009.3
20260505152003 25 233 4.8 16.1 0.00 0.00 0.00 45 1009.5
20260505151503 25 242 4.8 14.5 0.00 0.00 0.00 47 1009.6
20260505151003 25 236 4.8 14.5 0.00 0.00 0.00 47 1009.5
20260505150503 25 219 3.2 9.7 0.00 0.00 0.00 49 1009.6
20260505125002 18 232 3.2 12.9 0.00 0.00 0.00 63 1010.3
20260505124503 17 227 4.8 14.5 0.00 0.00 0.00 65 1010.3
20260505123503 17 223 3.2 11.3 0.00 0.00 0.00 66 1010.4
20260505123003 17 224 3.2 11.3 0.00 0.00 0.00 68 1010.3
20260505122503 16 228 3.2 8.0 0.00 0.00 0.00 67 1010.3
20260505122003 16 229 3.2 8.0 0.00 0.00 0.00 68 1010.3
20260505121503 16 230 1.6 9.7 0.00 0.00 0.00 68 1010.1
20260505121003 16 229 1.6 9.7 0.00 0.00 0.00 69 1010.1
20260505120506 16 229 1.6 9.7 0.00 0.00 0.00 70 1010.0
20260505120004 16 229 3.2 11.3 0.00 0.00 0.00 70 1010.0
20260505115503 16 229 3.2 11.3 0.00 0.00 0.00 72 1010.0
20260505115002 16 213 3.2 9.7 0.00 0.00 0.00 71 1009.9
20260505114003 15 198 1.6 6.4 0.00 0.00 0.00 73 1010.0
20260505113503 15 193 1.6 4.8 0.00 0.00 0.00 73 1009.9
20260505112503 15 187 1.6 4.8 0.00 0.00 0.00 74 1009.7
20260505111503 14 185 0.0 3.2 0.00 0.00 0.00 76 1009.6
20260505111006 14 176 0.0 3.2 0.00 0.00 0.00 76 1009.5
20260505110503 14 177 0.0 3.2 0.00 0.00 0.00 76 1009.5
20260505102003 12 238 0.0 3.2 0.00 0.00 0.00 80 1009.2
20260505101503 12 238 0.0 3.2 0.00 0.00 0.00 80 1009.2
20260505100503 12 236 0.0 1.6 0.00 0.00 0.00 80 1009.0
20260505100003 12 238 0.0 1.6 0.00 0.00 0.00 80 1009.1
20260505094503 12 244 0.0 1.6 0.00 0.00 0.00 80 1009.1
20260505094003 12 243 0.0 1.6 0.00 0.00 0.00 81 1009.0
20260505093503 12 241 0.0 1.6 0.00 0.00 0.00 81 1009.1
20260505093004 12 238 1.6 3.2 0.00 0.00 0.00 81 1009.0
20260505092502 13 237 0.0 3.2 0.00 0.00 0.00 81 1009.0
20260505092003 12 240 0.0 3.2 0.00 0.00 0.00 81 1009.0
20260505091003 13 237 0.0 4.8 0.00 0.00 0.00 80 1009.0
20260505090503 13 234 0.0 4.8 0.00 0.00 0.00 80 1008.9
20260505090003 13 232 1.6 4.8 0.00 0.00 0.00 80 1008.9
20260505085503 13 228 1.6 4.8 0.00 0.00 0.00 80 1009.0
20260505085003 13 224 0.0 3.2 0.00 0.00 0.00 79 1009.0
20260505084503 13 198 0.0 6.4 0.00 0.00 0.00 79 1009.0
20260505084003 13 194 0.0 6.4 0.00 0.00 0.00 79 1009.0
20260505083503 13 187 0.0 4.8 0.00 0.00 0.00 78 1008.9
20260505083003 13 182 0.0 4.8 0.00 0.00 0.00 78 1008.9
20260505082503 13 179 1.6 4.8 0.00 0.00 0.00 77 1009.0
20260505082003 13 178 1.6 4.8 0.00 0.00 0.00 77 1009.0
20260505081502 13 186 1.6 3.2 0.00 0.00 0.00 76 1009.0
20260505081003 14 184 1.6 3.2 0.00 0.00 0.00 76 1008.9
20260505075505 14 178 1.6 6.4 0.00 0.00 0.00 74 1008.9
20260505075003 15 184 1.6 4.8 0.00 0.00 0.00 74 1008.9
20260505074502 15 186 1.6 4.8 0.00 0.00 0.00 73 1008.8
20260505074003 15 182 1.6 4.8 0.00 0.00 0.00 73 1008.8
20260505073503 15 186 1.6 4.8 0.00 0.00 0.00 73 1008.8
20260505073003 15 184 1.6 4.8 0.00 0.00 0.00 73 1008.7
20260505072503 15 187 1.6 4.8 0.00 0.00 0.00 74 1008.7
20260505072003 15 208 0.0 6.4 0.00 0.00 0.00 73 1008.8
20260505071503 15 184 0.0 6.4 0.00 0.00 0.00 73 1008.7
20260505071003 15 179 0.0 3.2 0.00 0.00 0.00 74 1008.6
20260505070503 15 207 0.0 8.0 0.00 0.00 0.00 74 1008.7
20260505070005 14 210 1.6 8.0 0.00 0.00 0.00 74 1008.6
20260505065002 14 184 1.6 4.8 0.00 0.00 0.00 75 1008.5
20260505064503 14 240 0.0 3.2 0.00 0.00 0.00 76 1008.6
20260505064003 14 210 0.0 1.6 0.00 0.00 0.00 76 1008.6
20260505063503 14 0 0.0 0.0 0.00 0.00 0.00 77 1008.7
20260505063003 14 161 0.0 1.6 0.00 0.00 0.00 76 1008.8
20260505062502 14 161 0.0 1.6 0.00 0.00 0.00 76 1008.9
20260505062003 14 182 0.0 1.6 0.00 0.00 0.00 75 1008.9
20260505061003 15 204 0.0 1.6 0.00 0.00 0.00 74 1009.0
20260505060504 15 246 0.0 1.6 0.00 0.00 0.00 73 1008.9
20260505060003 14 237 0.0 1.6 0.00 0.00 0.00 73 1009.0
20260505055503 14 234 0.0 1.6 0.00 0.00 0.00 73 1008.9
20260505055003 14 241 0.0 1.6 0.00 0.00 0.00 73 1009.0
20260505054003 14 240 1.6 4.8 0.00 0.00 0.00 73 1008.9
20260505053003 13 238 0.0 3.2 0.00 0.00 0.00 74 1008.9
20260505052503 13 240 0.0 1.6 0.00 0.00 0.00 74 1009.0
20260505052003 13 240 0.0 1.6 0.00 0.00 0.00 75 1008.8
20260505051503 13 0 0.0 0.0 0.00 0.00 0.00 74 1008.9
20260505051003 13 0 0.0 0.0 0.00 0.00 0.00 74 1008.9
20260505050503 14 0 0.0 0.0 0.00 0.00 0.00 73 1008.9
20260505041003 15 205 1.6 11.3 0.00 0.00 0.00 67 1008.7
20260505034003 15 189 3.2 6.4 0.00 0.00 0.00 65 1008.5
20260505033504 15 188 1.6 6.4 0.00 0.00 0.00 65 1008.4
20260505033003 15 187 1.6 4.8 0.00 0.00 0.00 64 1008.4
20260505032503 15 186 3.2 8.0 0.00 0.00 0.00 64 1008.5
20260505032003 15 185 3.2 8.0 0.00 0.00 0.00 64 1008.4
20260505031002 15 188 1.6 4.8 0.00 0.00 0.00 64 1008.7
20260505030005 15 194 0.0 3.2 0.00 0.00 0.00 64 1008.8
20260505025503 15 219 0.0 3.2 0.00 0.00 0.00 63 1008.7
20260505025003 15 179 0.0 3.2 0.00 0.00 0.00 63 1008.6
20260505024003 15 173 0.0 3.2 0.00 0.00 0.00 62 1008.5
20260505023503 15 174 0.0 3.2 0.00 0.00 0.00 62 1008.6
20260505023003 15 175 0.0 3.2 0.00 0.00 0.00 61 1008.5
20260505022503 15 176 1.6 4.8 0.00 0.00 0.00 61 1008.6
20260505022003 16 176 1.6 4.8 0.00 0.00 0.00 60 1008.6
20260505021503 16 175 1.6 6.4 0.00 0.00 0.00 60 1008.6
20260505021003 16 175 1.6 6.4 0.00 0.00 0.00 59 1008.5
20260505020505 16 176 1.6 4.8 0.00 0.00 0.00 59 1008.6
20260505020003 15 176 1.6 4.8 0.00 0.00 0.00 59 1008.8
20260505015002 15 172 1.6 3.2 0.00 0.00 0.00 59 1008.8
20260505014003 16 234 0.0 1.6 0.00 0.00 0.00 59 1008.9
20260505013503 16 235 0.0 1.6 0.00 0.00 0.00 58 1008.8
20260505012503 16 237 0.0 3.2 0.00 0.00 0.00 57 1008.6
20260505012003 16 231 0.0 1.6 0.00 0.00 0.00 57 1008.6
20260505011503 16 229 0.0 3.2 0.00 0.00 0.00 56 1008.4
20260505011005 16 213 0.0 6.4 0.00 0.00 0.00 56 1008.3
20260505010503 17 189 1.6 6.4 0.00 0.00 0.00 56 1008.2
20260505005503 17 211 3.2 9.7 0.00 0.00 0.00 54 1008.2
20260505004503 17 203 1.6 9.7 0.00 0.00 0.00 53 1008.3
20260505003503 17 193 3.2 9.7 0.00 0.00 0.00 52 1008.2
20260505003003 17 190 3.2 9.7 0.00 0.00 0.00 52 1008.3
20260505002503 17 189 1.6 6.4 0.00 0.00 0.00 51 1008.2
20260505002003 17 189 3.2 11.3 0.00 0.00 0.00 49 1008.2
20260505001505 18 193 4.8 11.3 0.00 0.00 0.00 49 1008.1
20260505001003 18 194 3.2 11.3 0.00 0.00 0.00 48 1008.1
20260505000004 18 189 3.2 11.3 0.00 0.00 0.00 47 1007.9
20260504235003 18 193 3.2 8.0 0.00 0.00 0.00 47 1008.0
20260504234003 18 191 3.2 9.7 0.00 0.00 0.00 46 1007.9
20260504233502 19 187 4.8 11.3 0.00 0.00 0.00 45 1007.9
20260504233003 20 183 4.8 11.3 0.00 0.00 0.00 44 1007.9
20260504232503 20 184 4.8 12.9 0.00 0.00 0.00 44 1007.9
20260504232005 20 190 3.2 12.9 0.00 0.00 0.00 43 1008.0
20260504231503 20 186 4.8 12.9 0.00 0.00 0.00 42 1008.0
20260504231003 20 184 4.8 12.9 0.00 0.00 0.00 42 1008.0
20260504230503 21 184 4.8 14.5 0.00 0.00 0.00 42 1008.1
20260504230003 21 188 4.8 14.5 0.00 0.00 0.00 41 1008.0
20260504225503 21 195 4.8 12.9 0.00 0.00 0.00 42 1008.0
20260504225003 21 191 4.8 12.9 0.00 0.00 0.00 41 1008.0
20260504223503 21 193 3.2 14.5 0.00 0.00 0.00 42 1008.1
20260504223003 21 191 4.8 9.7 0.00 0.00 0.00 41 1008.1
20260504222004 21 181 4.8 19.3 0.00 0.00 0.00 41 1008.1
20260504221003 21 189 4.8 16.1 0.00 0.00 0.00 41 1008.0
20260504220505 21 181 6.4 16.1 0.00 0.00 0.00 41 1008.0
20260504215503 21 183 6.4 20.9 0.00 0.00 0.00 39 1008.0
20260504215003 21 181 4.8 14.5 0.00 0.00 0.00 39 1008.0
20260504214003 21 192 6.4 14.5 0.00 0.00 0.00 40 1008.0
20260504213503 21 186 6.4 17.7 0.00 0.00 0.00 39 1008.0
20260504213003 21 179 6.4 17.7 0.00 0.00 0.00 39 1008.2
20260504212503 22 184 6.4 19.3 0.00 0.00 0.00 40 1008.1
20260504212003 22 187 6.4 19.3 0.00 0.00 0.00 39 1008.1
20260504211503 22 182 6.4 14.5 0.00 0.00 0.00 38 1008.1
20260504211005 22 179 8.0 22.5 0.00 0.00 0.00 39 1008.0
20260504210503 22 190 8.0 22.5 0.00 0.00 0.00 39 1008.0
20260504210004 22 200 6.4 17.7 0.00 0.00 0.00 38 1008.0
20260504205504 22 205 4.8 12.9 0.00 0.00 0.00 39 1007.9
20260504205003 22 195 6.4 17.7 0.00 0.00 0.00 41 1008.0
20260504204503 22 188 6.4 17.7 0.00 0.00 0.00 39 1008.0
20260504204003 22 186 4.8 16.1 0.00 0.00 0.00 38 1008.0
20260504203503 22 183 6.4 16.1 0.00 0.00 0.00 39 1007.9
20260504203003 22 184 6.4 16.1 0.00 0.00 0.00 39 1007.9
20260504202503 22 183 6.4 14.5 0.00 0.00 0.00 40 1008.0
20260504202003 22 188 6.4 12.9 0.00 0.00 0.00 39 1008.1
20260504201003 22 184 6.4 16.1 0.00 0.00 0.00 38 1008.2
20260504200503 22 193 6.4 16.1 0.00 0.00 0.00 39 1008.3
20260504200003 22 204 4.8 14.5 0.00 0.00 0.00 38 1008.4
20260504195503 22 188 4.8 17.7 0.00 0.00 0.00 41 1008.6
20260504195003 22 185 4.8 17.7 0.00 0.00 0.00 41 1008.6
20260504194503 22 183 6.4 14.5 0.00 0.00 0.00 40 1008.6
20260504194003 22 182 6.4 14.5 0.00 0.00 0.00 39 1008.8
20260504193503 22 195 4.8 14.5 0.00 0.00 0.00 39 1008.8
20260504193003 22 196 4.8 14.5 0.00 0.00 0.00 41 1008.9
20260504192504 22 185 3.2 9.7 0.00 0.00 0.00 41 1009.0
20260504192005 22 189 4.8 16.1 0.00 0.00 0.00 41 1009.0
20260504191503 22 186 6.4 16.1 0.00 0.00 0.00 40 1009.1
20260504191003 22 199 6.4 17.7 0.00 0.00 0.00 38 1009.3
20260504190504 22 213 4.8 17.7 0.00 0.00 0.00 40 1009.5
20260504190004 22 206 4.8 11.3 0.00 0.00 0.00 38 1009.3
20260504185503 22 203 6.4 12.9 0.00 0.00 0.00 39 1009.5
20260504185003 22 213 6.4 17.7 0.00 0.00 0.00 37 1009.6
20260504184503 22 216 6.4 17.7 0.00 0.00 0.00 40 1009.6
20260504184003 22 208 6.4 17.7 0.00 0.00 0.00 39 1009.6
20260504182503 22 195 4.8 19.3 0.00 0.00 0.00 39 1009.7
20260504182004 22 211 6.4 19.3 0.00 0.00 0.00 39 1009.6
20260504181503 21 215 6.4 16.1 0.00 0.00 0.00 37 1009.7
20260504181003 22 198 6.4 16.1 0.00 0.00 0.00 41 1009.8
20260504180503 22 195 6.4 12.9 0.00 0.00 0.00 40 1010.0
20260504180003 21 198 6.4 12.9 0.00 0.00 0.00 39 1009.9
20260504175503 21 203 6.4 24.1 0.00 0.00 0.00 42 1009.9
20260504175003 21 220 6.4 24.1 0.00 0.00 0.00 38 1010.1
20260504174504 21 220 4.8 17.7 0.00 0.00 0.00 39 1010.2
20260504174004 21 223 6.4 20.9 0.00 0.00 0.00 41 1010.2
20260504173503 21 216 6.4 20.9 0.00 0.00 0.00 39 1010.3
20260504173003 21 203 4.8 17.7 0.00 0.00 0.00 40 1010.3
20260504172505 21 200 4.8 17.7 0.00 0.00 0.00 39 1010.4
20260504172004 21 218 4.8 16.1 0.00 0.00 0.00 39 1010.5